Weather History for Port Isabel, TX

Change the Weather History Date:

Wednesday, April 2, 2014

  Actual Average Record
Temperature  
Mean Temperature 80 °F -  
Max Temperature 87 °F - - ()
Min Temperature 73 °F - - ()
Cooling Degree Days 14    
Growing Degree Days 30 (Base 50)    
Moisture  
Dew Point 72 °F    
Average Humidity 82    
Maximum Humidity 94    
Minimum Humidity 61    
Precipitation  
Precipitation 0.00 in - - ()
Sea Level Pressure  
Sea Level Pressure 29.82 in    
Wind  
Wind Speed 14 mph (SSE)    
Max Wind Speed 28 mph    
Max Gust Speed 40 mph    
Visibility 6 miles    
Events      
T = Trace of Precipitation, MM = Missing Value Source: NWS Daily Summary

Daily Weather History Graph

Daily Weather History Graph

Search for Another Location

Airport:

Trip Planner

Search our weather history database for the weather conditions in past years. The results will help you decide how hot, cold, wet, or windy it might be!

Date:

Astronomy

Apr. 02, 2014 Rise Set
Actual Time 7:19 AM CDT 7:46 PM CDT
Civil Twilight 6:56 AM CDT 8:10 PM CDT
Nautical Twilight 6:28 AM CDT 8:37 PM CDT
Astronomical Twilight 6:01 AM CDT 9:04 PM CDT
Moon 9:20 AM CDT 10:53 PM CDT
Length of Visible Light 13h 13m
Length of Day
12h 27m
Waxing Crescent, 10% of the Moon is Illuminated
Apr 2
Waxing Crescent
Apr 7
First Quarter
Apr 15
Full
Apr 22
Last Quarter
Apr 29
New

Hourly Weather History & Observations

Time (CDT) Temp. Heat Index Dew Point Humidity Pressure Visibility Wind Dir Wind Speed Gust Speed Precip Events Conditions
12:35 AM 73.4 °F - 71.6 °F 94% 29.88 in 6.0 mi SE 9.2 mph - N/A   Overcast
12:53 AM 73.9 °F - 71.1 °F 91% 29.88 in 6.0 mi SE 9.2 mph - N/A   Overcast
1:53 AM 75.9 °F - 72.0 °F 87% 29.88 in 7.0 mi South 8.1 mph - N/A   Overcast
2:53 AM 75.0 °F - 71.1 °F 87% 29.86 in 6.0 mi South 9.2 mph - N/A   Scattered Clouds
3:16 AM 73.4 °F - 71.6 °F 94% 29.85 in 6.0 mi SSE 9.2 mph - N/A   Mostly Cloudy
3:24 AM 73.4 °F - 71.6 °F 94% 29.85 in 6.0 mi South 9.2 mph - N/A   Scattered Clouds
3:53 AM 73.9 °F - 71.1 °F 91% 29.85 in 5.0 mi South 8.1 mph - N/A   Scattered Clouds
4:02 AM 73.4 °F - 71.6 °F 94% 29.85 in 5.0 mi SSE 9.2 mph - N/A   Mostly Cloudy
4:18 AM 73.4 °F - 71.6 °F 94% 29.84 in 5.0 mi SSE 8.1 mph - N/A   Scattered Clouds
4:53 AM 73.0 °F - 71.1 °F 93% 29.83 in 4.0 mi SE 11.5 mph - N/A   Scattered Clouds
5:00 AM 73.4 °F - 71.6 °F 94% 29.83 in 4.0 mi SE 11.5 mph - N/A   Mostly Cloudy
5:07 AM 73.4 °F - 71.6 °F 94% 29.83 in 4.0 mi SE 11.5 mph - N/A   Mostly Cloudy
5:38 AM 73.4 °F - 69.8 °F 88% 29.83 in 4.0 mi SE 11.5 mph - N/A   Mostly Cloudy
5:50 AM 73.4 °F - 69.8 °F 88% 29.83 in 4.0 mi SSE 10.4 mph - N/A   Scattered Clouds
5:53 AM 73.0 °F - 70.0 °F 90% 29.83 in 4.0 mi SSE 10.4 mph - N/A   Scattered Clouds
6:09 AM 73.4 °F - 71.6 °F 94% 29.83 in 4.0 mi SSE 10.4 mph - N/A   Mostly Cloudy
7:53 AM 73.0 °F - 71.1 °F 93% 29.82 in 2.5 mi SSE 21.9 mph 28.8 mph N/A   Overcast
8:10 AM 73.4 °F - 71.6 °F 94% 29.82 in 3.0 mi SSE 23.0 mph 32.2 mph N/A   Overcast
8:38 AM 75.2 °F - 71.6 °F 89% 29.83 in 4.0 mi SSE 21.9 mph 28.8 mph N/A   Mostly Cloudy
8:53 AM 75.9 °F - 72.0 °F 87% 29.83 in 5.0 mi SSE 23.0 mph 31.1 mph N/A   Overcast
9:53 AM 77.0 °F - 72.0 °F 84% 29.84 in 5.0 mi SSE 23.0 mph 33.4 mph N/A   Haze
10:01 AM 77.0 °F - 71.6 °F 83% 29.84 in 5.0 mi SSE 21.9 mph 33.4 mph N/A   Haze
10:32 AM 80.6 °F 84.6 °F 71.6 °F 74% 29.85 in 6.0 mi South 25.3 mph 35.7 mph N/A   Haze
10:49 AM 82.4 °F 87.2 °F 71.6 °F 70% 29.85 in 7.0 mi South 25.3 mph 35.7 mph N/A   Scattered Clouds
10:53 AM 82.0 °F 86.3 °F 71.1 °F 69% 29.85 in 7.0 mi South 26.5 mph 35.7 mph N/A   Partly Cloudy
11:53 AM 86.0 °F 91.5 °F 71.1 °F 61% 29.85 in 8.0 mi South 25.3 mph 35.7 mph N/A   Clear
12:53 PM 86.0 °F 91.5 °F 71.1 °F 61% 29.84 in 8.0 mi South 26.5 mph 35.7 mph N/A   Scattered Clouds
1:31 PM 84.2 °F 89.6 °F 71.6 °F 66% 29.83 in 8.0 mi South 26.5 mph 36.8 mph N/A   Mostly Cloudy
1:50 PM 84.2 °F 89.6 °F 71.6 °F 66% 29.82 in 7.0 mi South 25.3 mph 40.3 mph N/A   Scattered Clouds
1:53 PM 84.9 °F 90.1 °F 71.1 °F 63% 29.82 in 8.0 mi South 20.7 mph 40.3 mph N/A   Scattered Clouds
2:53 PM 86.0 °F 91.5 °F 71.1 °F 61% 29.78 in 8.0 mi South 21.9 mph 35.7 mph N/A   Clear
3:53 PM 86.0 °F 92.2 °F 72.0 °F 63% 29.74 in 8.0 mi SSE 27.6 mph 36.8 mph N/A   Clear
4:53 PM 84.9 °F 90.7 °F 72.0 °F 65% 29.74 in 8.0 mi SSE 24.2 mph 32.2 mph N/A   Clear
5:53 PM 82.9 °F 88.8 °F 73.0 °F 72% 29.73 in 8.0 mi SSE 19.6 mph 28.8 mph N/A   Partly Cloudy
6:53 PM 81.0 °F 85.2 °F 72.0 °F 74% 29.74 in 7.0 mi South 19.6 mph 26.5 mph N/A   Partly Cloudy
7:53 PM 78.1 °F - 72.0 °F 81% 29.74 in 7.0 mi SSE 17.3 mph 26.5 mph N/A   Scattered Clouds
8:06 PM 78.8 °F - 71.6 °F 78% 29.74 in 7.0 mi SSE 16.1 mph - N/A   Mostly Cloudy
8:53 PM 78.1 °F - 73.0 °F 84% 29.75 in 7.0 mi South 18.4 mph 31.1 mph N/A   Overcast
9:53 PM 78.1 °F - 73.0 °F 84% 29.78 in 7.0 mi South 17.3 mph 25.3 mph N/A   Overcast
11:53 PM 77.0 °F - 72.0 °F 84% 29.81 in 7.0 mi South 16.1 mph 24.2 mph N/A   Overcast